Regional Weather Roundup
Issued by NWS Upton, NY

Current Version | Previous Version | Text Only | Print | Product List | Glossary Off
Versions: 1 2 3 4 5 6 7 8 9 10 11 12 13 14 15 16 17 18 19 20 21 22 23 24 25 26 27 28 29 30 31 32 33 34 35 36 37 38 39 40 41 42 43 44 45 46 47 48 49 50

000
ASUS41 KOKX 291204
RWROKX

REGIONAL WEATHER ROUNDUP
NATIONAL WEATHER SERVICE NEW YORK NY
800 AM EDT SAT AUG 29 2015

NOTE: "FAIR" INDICATES FEW OR NO CLOUDS BELOW 12,000 FEET WITH NO
SIGNIFICANT WEATHER AND/OR OBSTRUCTIONS TO VISIBILITY.

NYZ071-072-176-178-NJZ106-104-291300-
NEW YORK CITY METRO AREA


CITY           SKY/WX    TMP DP  RH WIND       PRES   REMARKS
CENTRAL PARK   SUNNY     69  55  60 CALM      30.24R
LAGUARDIA APRT MOSUNNY   73  55  53 CALM      30.21R
KENNEDY INTL   MOSUNNY   74  58  57 NE3       30.22R
NEWARK/LIBERTY MOSUNNY   70  57  63 CALM      30.22R
BRNX BOT. GARD   N/A     70  55  60 N2        30.22S
TETERBORO      SUNNY     65  54  67 CALM      30.21R
$$

NYZ177-179-078>081-291300-
LONG ISLAND NEW YORK

CITY           SKY/WX    TMP DP  RH WIND       PRES   REMARKS
FARMINGDALE    SUNNY     70  58  65 CALM      30.22R
ISLIP          MOSUNNY   69  62  78 N5        30.20R
SHIRLEY        SUNNY     68  63  84 CALM      30.22R
WESTHAMPTON    SUNNY     66  62  87 CALM      30.23R
MONTAUK POINT    N/A     73  64  73 CALM      30.22R
$$

NYZ052-065-067-291300-
HUDSON VALLEY

CITY           SKY/WX    TMP DP  RH WIND       PRES   REMARKS
WHITE PLAINS   SUNNY     65  58  78 NW5       30.22R
NEWBURGH       SUNNY     59  57  94 CALM      30.24S
MONTGOMERY     SUNNY     56  54  93 S3        30.23R
POUGHKEEPSIE   SUNNY     58  55  90 CALM      30.23R
ALBANY         MOSUNNY   59  55  87 CALM      30.22R
$$

NJZ001-105-106-008-010-013-015-019>022-104-291300-
NEW JERSEY

CITY           SKY/WX    TMP DP  RH WIND       PRES   REMARKS
NEWARK/LIBERTY MOSUNNY   70  57  63 CALM      30.22R
TETERBORO      SUNNY     65  54  67 CALM      30.21R
CALDWELL       SUNNY     61  55  81 CALM      30.23R
MORRISTOWN     MOSUNNY   63  61  94 CALM      30.23R
SOMERVILLE     SUNNY     59  54  83 CALM      30.21R
SUSSEX         SUNNY     54  51  90 CALM      30.24R
ANDOVER          N/A     56  55  97 CALM      30.24R
TRENTON        SUNNY     63  57  81 CALM      30.22R
MILLVILLE      SUNNY     63  59  87 CALM      30.23R
ATLANTIC CITY  SUNNY     64  59  83 CALM      30.23R
WRIGHTSTOWN    SUNNY     62  59  91 CALM      30.20R
TOMS RIVER     SUNNY     64  57  77 CALM      30.23R
BELMAR         SUNNY     66  55  68 CALM      30.22S
$$

PAZ047>061-062-071-291300-
EASTERN PENNSYLVANIA

CITY           SKY/WX    TMP DP  RH WIND       PRES   REMARKS
PHILADELPHIA   MOSUNNY   70  58  65 CALM      30.23R
ALLENTOWN      SUNNY     59  55  87 CALM      30.23R
SCRANTON       SUNNY     59  52  77 CALM      30.23R
$$

CTZ002-004>006-009-010-012-RIZ004-006-007-MAZ004-011-015-291300-
SOUTHERN NEW ENGLAND
 IN CT

CITY           SKY/WX    TMP DP  RH WIND       PRES   REMARKS
BRADLEY INTL   MOSUNNY   61  55  81 CALM      30.21R
HARTFORD       SUNNY     61  58  90 CALM      30.21R
DANBURY        SUNNY     59  54  83 CALM      30.24R
WTRBRY/OXFORD  SUNNY     61  52  72 CALM      30.25R
BRIDGEPORT     SUNNY     66  58  75 CALM      30.21R
MERIDEN        SUNNY     60  56  86 CALM      30.22R
NEW HAVEN      SUNNY     63  58  83 CALM      30.22R
CHESTER        NOT AVBL
GROTON         SUNNY     65  59  81 CALM      30.20S
WILLIMANTIC    SUNNY     58  53  84 CALM      30.22R

 IN RI

CITY           SKY/WX    TMP DP  RH WIND       PRES   REMARKS
PROVIDENCE     MOSUNNY   66  57  72 CALM      30.21R
BLOCK ISLAND   SUNNY     70  63  78 CALM      30.21R
WESTERLY       SUNNY     63  57  81 CALM      30.21R

 IN MA

CITY           SKY/WX    TMP DP  RH WIND       PRES   REMARKS
BOSTON         MOSUNNY   70  56  61 CALM      30.19S
WORCESTER      SUNNY     62  53  72 W7        30.22R
WESTFIELD      SUNNY     57  54  89 CALM      30.22R
PROVINCETOWN   SUNNY     68  59  73 W5        30.20R
NANTUCKET      SUNNY     72  65  78 W8        30.20R
$$

ANZ330-335-338-340-345-350-353-355-291300-
COASTAL MARINE OBSERVATIONS


STATION/POSITION TIME  SKY/WX   TEMP    WIND        PRES    VSBY  WAVE
                                AIR SEA DIR/SP/G                  HT/PER
                 (UTC)          (F)     (DEG/KT/KT) (MB)    (MI)  (FT/S)
NY HARB ENTRANCE 1050            72 75  300/  6/  8 1022.4          3/11
4S FIRE IS       NOT AVBL
20S FIRE ISLAND  1050            73 74  290/  6/  8 1022.5          3/11
GREAT SOUTH BAY  1100            68 78  330/  6/  6   N/A
23SW MTP         1150            72 72  270/  6/  8 1022.5          3/11
HUDSON CANYON    NOT AVBL
KINGS POINT      NOT AVBL
EXECUTION ROCKS  1100            70     320/  4/  6   N/A
CENTRAL LI SOUND NOT AVBL
EASTERN LI SOUND 1100            65 71   30/  4/  6   N/A
ROBBINS REEF     NOT AVBL
$$


>>>>>>>>>>>>>>>>>>>>>>>>>>>> KEY <<<<<<<<<<<<<<<<<<<<<<<<<<<
>                                                          <
>     SKY/WX - SKY CONDITION/PRESENT WEATHER               <
>     TMP    - TEMPERATURE IN FAHRENHEIT                   <
>     DP     - DEWPOINT IN FAHRENHEIT                      <
>     RH     - RELATIVE HUMIDITY IN PERCENT                <
>     WIND   - DIRECTION AND SPEED IN MPH                  <
>     PRES   - MEAN SEA LEVEL PRESSURE IN INCHES OF HG     <
>     WCI    - WIND CHILL INDEX                            <
>     VSB    - VISIBILITY IN MILES                         <
>     HX     - HEAT INDEX                                  <
>     TC     - TEMPERATURE IN CELSIUS                      <
>     VRB    - VARIABLE WIND DIRECTION                     <
>                                                          <
>>>>>>>>>>>>>>>>>>>>>>>>>>>> KEY <<<<<<<<<<<<<<<<<<<<<<<<<<<




USA.gov is the U.S. government's official web portal to all federal, state and local government web resources and services.